Louisville, KY

12:50 AM EDT on September 30, 2016 (GMT -0400)
Louisville International-Standiford

Weather History for KSDF - March, 2012

Change the Weather History Date:

Saturday, March 24, 2012

  Actual Average Record
Temperature  
Mean Temperature 57 °F 50 °F  
Max Temperature 63 °F 61 °F 88 °F (1910)
Min Temperature 51 °F 40 °F 17 °F (1896)
Degree Days  
Heating Degree Days 8 15  
Month to date heating degree days 200 444  
Since 1 July heating degree days 2978 3685  
Cooling Degree Days 0 0  
Month to date cooling degree days 59 0  
Year to date cooling degree days 59 0  
Growing Degree Days 8 (Base 50)    
Moisture  
Dew Point 46 °F    
Average Humidity 71    
Maximum Humidity 86    
Minimum Humidity 56    
Precipitation  
Precipitation 0.00 in 0.14 in 1.00 in (1921)
Month to date precipitation 5.99 3.18  
Year to date precipitation 11.82 9.60  
Snow  
Snow 0.00 in 0.00 in 2.50 in (1990)
Month to date snowfall 3.5 1.2  
Since 1 July snowfall 7.0 12.2  
Snow Depth 0.00 in    
Sea Level Pressure  
Sea Level Pressure 29.86 in    
Wind  
Wind Speed 6 mph (WSW)    
Max Wind Speed 12 mph    
Max Gust Speed 29 mph    
Visibility 10 miles    
Events      
T = Trace of Precipitation, MM = Missing Value Source: NWS Daily Summary

Daily Weather History Graph

Daily Weather History Graph

Search for Another Location

Airport or City:

Trip Planner

Search our weather history database for the weather conditions in past years. The results will help you decide how hot, cold, wet, or windy it might be!

Date:

Astronomy

Mar. 24, 2012 Rise Set
Actual Time 7:39 AM EDT 7:59 PM EDT
Civil Twilight 7:13 AM EDT 8:25 PM EDT
Nautical Twilight 6:42 AM EDT 8:56 PM EDT
Astronomical Twilight 6:10 AM EDT 9:28 PM EDT
Moon 8:20 AM EDT (3/24) 10:14 PM EDT (3/24)
Length of Visible Light 13h 12m
Length of Day
12h 19m
Waxing Crescent, 4% of the Moon is Illuminated
Mar 24
Waxing Crescent
Mar 30
First Quarter
Apr 6
Full
Apr 13
Last Quarter
Apr 21
New

Hourly Weather History & Observations

Time (EDT) Temp. Dew Point Humidity Pressure Visibility Wind Dir Wind Speed Gust Speed Precip Events Conditions
12:56 AM 57.9 °F 53.1 °F 84% 29.83 in 10.0 mi WNW 8.1 mph - N/A   Mostly Cloudy
1:56 AM 57.9 °F 53.1 °F 84% 29.85 in 10.0 mi SSW 3.5 mph - N/A   Mostly Cloudy
2:56 AM 55.0 °F 48.9 °F 80% 29.85 in 10.0 mi SSW 4.6 mph - N/A   Mostly Cloudy
3:56 AM 55.0 °F 46.9 °F 74% 29.84 in 10.0 mi South 5.8 mph - N/A   Scattered Clouds
4:56 AM 55.0 °F 45.0 °F 69% 29.84 in 10.0 mi SSW 6.9 mph - N/A   Mostly Cloudy
5:56 AM 53.1 °F 45.0 °F 74% 29.84 in 10.0 mi SSW 4.6 mph - N/A   Mostly Cloudy
6:56 AM 52.0 °F 45.0 °F 77% 29.84 in 10.0 mi SW 5.8 mph - N/A   Mostly Cloudy
7:56 AM 51.1 °F 44.1 °F 77% 29.84 in 10.0 mi SW 5.8 mph - N/A   Mostly Cloudy
8:56 AM 53.1 °F 45.0 °F 74% 29.86 in 10.0 mi SSW 4.6 mph - N/A   Scattered Clouds
9:56 AM 55.9 °F 46.0 °F 69% 29.86 in 10.0 mi SW 5.8 mph - N/A   Scattered Clouds
10:56 AM 59.0 °F 48.0 °F 67% 29.87 in 10.0 mi WSW 9.2 mph - N/A   Scattered Clouds
11:24 AM 60.8 °F 48.2 °F 63% 29.87 in 10.0 mi WSW 10.4 mph - N/A   Mostly Cloudy
11:56 AM 59.0 °F 46.0 °F 62% 29.86 in 10.0 mi WSW 8.1 mph - N/A   Mostly Cloudy
12:56 PM 60.1 °F 46.9 °F 62% 29.86 in 10.0 mi West 4.6 mph - N/A   Mostly Cloudy
1:56 PM 59.0 °F 46.9 °F 64% 29.86 in 10.0 mi WNW 4.6 mph - N/A   Overcast
2:56 PM 60.1 °F 46.0 °F 60% 29.86 in 10.0 mi NNW 6.9 mph - N/A   Overcast
3:56 PM 62.1 °F 46.9 °F 58% 29.85 in 10.0 mi NW 8.1 mph - N/A   Mostly Cloudy
4:56 PM 63.0 °F 46.0 °F 54% 29.84 in 10.0 mi North 5.8 mph - N/A   Mostly Cloudy
5:56 PM 64.9 °F 43.0 °F 45% 29.85 in 10.0 mi NW 8.1 mph - N/A   Mostly Cloudy
6:56 PM 64.0 °F 44.1 °F 48% 29.85 in 10.0 mi Calm Calm - N/A   Scattered Clouds
7:56 PM 62.1 °F 44.1 °F 52% 29.87 in 10.0 mi Calm Calm - N/A   Scattered Clouds
8:56 PM 60.1 °F 44.1 °F 55% 29.88 in 10.0 mi Calm Calm - N/A   Scattered Clouds
9:56 PM 57.0 °F 45.0 °F 64% 29.88 in 10.0 mi SSW 4.6 mph - N/A   Scattered Clouds
10:56 PM 55.9 °F 45.0 °F 67% 29.88 in 10.0 mi Calm Calm - N/A   Scattered Clouds
11:56 PM 57.9 °F 45.0 °F 62% 29.89 in 10.0 mi Calm Calm - N/A   Overcast